[[{"header":{"parameterUnit":"m.s-1","parameterCategory":1,"la1":30.2991,"la2":30.254,"lo1":-89.0895,"lo2":-89.0444,"dy":0.0017,"dx":0.0017,"nx":28,"ny":28,"refTime":"2023-09-02T03:00:00:Z","depth":0,"parameterNumber":2,"parameterNumberName":"U-component_of_WINDS"},"data":[0,0,0,0,0,0,0,0,0,0,0,0,0,0,0,0,0,0,0,0,0,0,0,0,0,0,0,0,0,0,0,0,0,0,0,0,0,0,0,0,0,0,0,0,0,0,0,0,0,0,0,0,0,0,0,0,0,0,-4.1698,-4.1699,0,-4.181,-4.1811,-4.1812,-4.1821,-4.1819,-4.1818,-4.1817,-4.1929,-4.1933,-4.1937,0,0,0,0,0,0,0,0,0,0,0,0,0,-4.1488,-4.1492,-4.1698,-4.1699,-4.1701,-4.181,-4.1811,-4.1813,-4.1821,-4.1819,-4.1818,-4.1817,-4.1928,-4.1933,-4.1938,0,0,0,0,0,0,0,0,0,0,0,0,0,-4.1587,-4.1493,-4.1698,-4.1718,-4.1721,-4.1809,-4.1811,-4.1813,-4.1821,-4.1819,-4.1818,-4.1816,-4.1926,-4.1932,-4.1939,-4.2013,0,0,-4.1957,-4.196,0,0,0,0,0,0,0,0,-4.1582,-4.1595,-4.1714,-4.1717,-4.172,-4.1799,-4.1778,-4.188,-4.1822,-4.1783,-4.1817,-4.1815,-4.1887,-4.1897,-4.1922,-4.2019,-4.2024,-4.1958,-4.1962,-4.1964,-4.1966,0,0,0,0,0,0,0,-4.1575,-4.159,-4.1742,-4.1715,-4.1719,-4.172,-4.1732,-4.1798,-4.1844,-4.1786,-4.1787,-4.18,-4.1889,-4.1916,-4.1924,-4.2025,-4.1958,-4.1963,-4.1967,-4.197,-4.2186,-4.2188,0,0,0,0,0,0,-4.1564,-4.1584,-4.1738,-4.1745,-4.1645,-4.1726,-4.1739,-4.1776,-4.1843,-4.1852,-4.1802,-4.18,-4.1906,-4.1917,-4.1928,-4.2018,-4.1964,-4.197,-4.1974,-4.2184,-4.2186,-4.2189,0,0,0,0,0,0,-4.156,-4.1578,-4.1734,-4.1665,-4.1685,-4.1731,-4.1772,-4.1779,-4.1806,-4.1855,-4.1863,-4.1821,-4.1905,-4.192,-4.1992,-4.2022,-4.1973,-4.1979,-4.2182,-4.2185,-4.2187,-4.2199,0,0,0,0,0,0,-4.1554,-4.1576,-4.1606,-4.1666,-4.1689,-4.1796,-4.1774,-4.1782,-4.1817,-4.1816,-4.1875,-4.1883,-4.1905,-4.1982,-4.1998,-4.2029,-4.1983,-4.2179,-4.2183,-4.2186,-4.2196,-4.2202,-4.2207,0,0,0,0,0,-4.1546,-4.1605,-4.1608,-4.1626,-4.1727,-4.1798,-4.1811,-4.1835,-4.1819,-4.1848,-4.188,-4.1881,-4.2017,-4.199,-4.2007,-4.2041,-4.2177,-4.2182,-4.2186,-4.2193,-4.2201,-4.2207,0,0,0,0,0,0,-4.1548,-4.1614,-4.1617,-4.1697,-4.1742,-4.1799,-4.1837,-4.1843,-4.1893,-4.189,-4.1917,-4.193,-4.2,-4.2029,-4.1997,-4.2116,-4.2095,-4.2103,-4.2094,-4.2102,-4.2107,-4.2098,-4.1989,0,0,0,0,0,-4.1558,-4.1611,-4.1665,-4.173,-4.1753,-4.1791,-4.1823,-4.1838,-4.1885,-4.1904,-4.1941,-4.1986,-4.2038,-4.2072,-4.2123,-4.2201,-4.2212,-4.2233,-4.2238,-4.2243,-4.2248,-4.2288,-4.2297,-4.2204,-4.2204,-4.2203,0,0,-4.1578,-4.162,-4.1652,-4.1732,-4.1768,-4.1821,-4.1807,-4.1864,-4.1903,-4.1912,-4.1982,-4.201,-4.2062,-4.2137,-4.2171,-4.2162,-4.2277,-4.2248,-4.2251,-4.2255,-4.2294,-4.2303,-4.2311,-4.2207,-4.2206,-4.2206,0,0,-4.1641,-4.168,-4.1737,-4.1774,-4.1829,-4.1854,-4.1868,-4.1925,-4.1944,-4.2014,-4.2022,-4.2068,-4.2159,-4.2194,-4.2224,-4.23,-4.2301,-4.2316,-4.2344,-4.2382,-4.239,-4.2396,-4.242,-4.2429,-4.2322,-4.2322,-4.2322,0,-4.1659,-4.174,-4.1766,-4.1822,-4.1856,-4.1867,-4.1924,-4.1958,-4.2027,-4.2049,-4.2039,-4.2151,-4.2187,-4.2268,-4.2286,-4.2311,-4.2326,-4.2308,-4.2387,-4.2394,-4.24,-4.2423,-4.2432,-4.2323,-4.2323,-4.2323,-4.2323,0,-4.1758,-4.1813,-4.1853,-4.1919,-4.1957,-4.2013,-4.2046,-4.2082,-4.2093,-4.2119,-4.2189,-4.2232,-4.2291,-4.2312,-4.2324,-4.2395,-4.2387,-4.2381,-4.236,-4.241,-4.2432,-4.2441,-4.2325,-4.2324,-4.2324,-4.2324,0,0,-4.1824,-4.1903,-4.1917,-4.1946,-4.2007,-4.205,-4.2106,-4.2164,-4.2192,-4.224,-4.2285,-4.2361,-4.2356,-4.239,-4.2406,-4.244,-4.2493,-4.243,-4.2432,-4.2437,-4.257,-4.2571,-4.2581,-4.2496,-4.2498,-4.2499,-4.2564,0,-4.1892,-4.1992,-4.2017,-4.2102,-4.2152,-4.2163,-4.2211,-4.2253,-4.2278,-4.2324,-4.2352,-4.2403,-4.2394,-4.2414,-4.2449,-4.2479,-4.2519,-4.2475,-4.2536,-4.2538,-4.252,-4.2593,-4.2596,-4.2655,-4.2573,-4.2575,-4.2576,0,-4.1985,-4.2033,-4.2123,-4.2175,-4.2197,-4.224,-4.2294,-4.2338,-4.2385,-4.2401,-4.2438,-4.245,-4.2507,-4.2485,-4.2562,-4.2532,-4.2558,-4.2577,-4.258,-4.2584,-4.2558,-4.2597,-4.2675,-4.2683,-4.259,-4.2589,-4.2588,0,-4.202,-4.2108,-4.2172,-4.2197,-4.2261,-4.229,-4.2318,-4.2364,-4.2396,-4.2443,-4.2464,-4.2517,-4.2545,-4.2585,-4.261,-4.2593,-4.2684,-4.2666,-4.2697,-4.2696,-4.2714,-4.2712,-4.2794,-4.2736,-4.2736,-4.2736,-4.2735,0,-4.2092,-4.2145,-4.2189,-4.2228,-4.2288,-4.2315,-4.2373,-4.2401,-4.2441,-4.2484,-4.2498,-4.2539,-4.2571,-4.2616,-4.2636,-4.2695,-4.2709,-4.2721,-4.2726,-4.2719,-4.2716,-4.2734,-4.273,-4.2738,-4.2737,-4.2737,-4.2737,0,-4.214,-4.2172,-4.2242,-4.2297,-4.2311,-4.2353,-4.2398,-4.2436,-4.2462,-4.2517,-4.2531,-4.2571,-4.2624,-4.2654,-4.2721,-4.2734,-4.2799,-4.2803,-4.2783,-4.2784,-4.2813,-4.2808,-4.2908,-4.2921,-4.2856,-4.2856,-4.2857,0,-4.2182,-4.2224,-4.2282,-4.2312,-4.234,-4.2389,-4.2422,-4.245,-4.2484,-4.2539,-4.257,-4.2623,-4.2668,-4.2751,-4.2786,-4.2836,-4.2839,-4.2871,-4.2847,-4.2838,-4.2836,-4.2832,-4.2835,-4.2874,-4.2874,-4.2875,-4.2875,0,-4.2253,-4.2266,-4.2313,-4.2365,-4.2404,-4.2446,-4.2488,-4.2512,-4.2547,-4.2583,-4.2637,-4.2672,-4.2739,-4.2791,-4.2845,-4.2872,-4.2878,-4.2883,-4.2892,-4.2884,-4.2869,-4.2874,-4.2791,-4.288,-4.2879,-4.2879,-4.2879,-4.2878,-4.2298,-4.2334,-4.238,-4.2431,-4.2465,-4.2504,-4.2541,-4.2571,-4.2617,-4.2674,-4.2688,-4.2744,-4.2788,-4.286,-4.2889,-4.2932,-4.2926,-4.2941,-4.2944,-4.2946,-4.2945,-4.2865,-4.2942,-4.2942,-4.2942,-4.2942,-4.2942,0,-4.2366,-4.2396,-4.2443,-4.25,-4.254,-4.2544,-4.259,-4.2623,-4.2672,-4.2713,-4.2756,-4.2817,-4.2867,-4.2905,-4.2956,-4.2984,-4.2988,-4.2996,-4.2993,-4.2998,-4.2949,-4.2935,-4.2991,-4.2991,-4.2991,-4.2991,-4.2991,-4.2991,-4.2406,-4.2466,-4.2484,-4.2561,-4.2591,-4.2646,-4.2671,-4.2706,-4.2739,-4.2806,-4.2848,-4.2872,-4.2912,-4.2965,-4.3011,-4.3021,-4.3038,-4.3045,-4.3055,-4.3008,-4.3002,-4.2997,-4.2983,-4.3049,-4.3049,-4.31,-4.31,-4.3101]},{"header":{"parameterUnit":"m.s-1","parameterCategory":1,"la1":30.2991,"la2":30.254,"lo1":-89.0895,"lo2":-89.0444,"dy":0.0017,"dx":0.0017,"nx":28,"ny":28,"refTime":"2023-09-02T03:00:00:Z","depth":0,"parameterNumber":3,"parameterNumberName":"V-component_of_WINDS"},"data":[0,0,0,0,0,0,0,0,0,0,0,0,0,0,0,0,0,0,0,0,0,0,0,0,0,0,0,0,0,0,0,0,0,0,0,0,0,0,0,0,0,0,0,0,0,0,0,0,0,0,0,0,0,0,0,0,0,0,2.9973,2.9974,0,3.0076,3.0077,3.0078,3.007,3.0069,3.0067,3.0066,3.017,3.0174,3.0179,0,0,0,0,0,0,0,0,0,0,0,0,0,2.9768,2.9772,2.9973,2.9974,2.9975,3.0076,3.0077,3.0078,3.007,3.0069,3.0067,3.0065,3.0169,3.0174,3.0179,0,0,0,0,0,0,0,0,0,0,0,0,0,2.9863,2.9773,2.9973,2.9983,2.9985,3.0075,3.0077,3.0079,3.0071,3.0069,3.0066,3.0064,3.0167,3.0173,3.018,3.0265,0,0,3.0199,3.0202,0,0,0,0,0,0,0,0,2.9857,2.987,2.9981,2.9983,2.9985,3.0058,3.0043,3.0141,3.0071,3.0038,3.0066,3.0063,3.0135,3.0144,3.0168,3.027,3.0275,3.02,3.0203,3.0206,3.0208,0,0,0,0,0,0,0,2.9851,2.9866,3.0013,2.9982,2.9985,2.9983,2.9994,3.0062,3.0098,3.0041,3.0041,3.0053,3.0136,3.0162,3.017,3.0276,3.0199,3.0205,3.0209,3.0211,3.0453,3.0455,0,0,0,0,0,0,2.9842,2.986,3.001,3.0017,2.9914,2.9989,3.0001,3.0037,3.0098,3.0105,3.0055,3.0052,3.0152,3.0163,3.0174,3.0277,3.0206,3.0212,3.0216,3.045,3.0453,3.0456,0,0,0,0,0,0,2.9838,2.9855,3.0006,2.9939,2.9958,2.9995,3.0035,3.004,3.0066,3.0108,3.0114,3.0075,3.0151,3.0165,3.0242,3.0281,3.0215,3.0221,3.0447,3.0451,3.0455,3.0485,0,0,0,0,0,0,2.9832,2.9854,2.9887,2.9939,2.9961,3.0073,3.0038,3.0044,3.0077,3.0075,3.0129,3.0135,3.015,3.0233,3.0249,3.0288,3.0226,3.0444,3.0449,3.0454,3.0481,3.049,3.0497,0,0,0,0,0,2.9825,2.9891,2.9889,2.9907,3.0003,3.0075,3.0088,3.0104,3.0081,3.0114,3.0141,3.0134,3.0274,3.0241,3.0259,3.0301,3.0442,3.0448,3.0453,3.0477,3.0488,3.0497,0,0,0,0,0,0,2.9842,2.9898,2.9896,2.9982,3.0024,3.0074,3.0116,3.0115,3.0164,3.0159,3.0177,3.0189,3.0267,3.0292,3.0253,3.0387,3.0355,3.0365,3.0367,3.0378,3.0386,3.0377,3.0231,0,0,0,0,0,2.9856,2.991,2.9956,3.0028,3.0049,3.0079,3.0111,3.012,3.0164,3.0181,3.0214,3.0257,3.0311,3.0346,3.0398,3.0485,3.0496,3.0523,3.0531,3.0537,3.0545,3.0592,3.0604,3.0476,3.0476,3.0475,0,0,2.9886,2.9923,2.9956,3.0032,3.0066,3.0121,3.0094,3.0154,3.0195,3.019,3.0265,3.0291,3.034,3.0422,3.046,3.0446,3.0583,3.0545,3.055,3.0554,3.06,3.0612,3.0623,3.048,3.0479,3.0478,0,0,2.9967,3.0001,3.0064,3.0098,3.0149,3.0169,3.0184,3.0235,3.0251,3.0327,3.0324,3.0373,3.0466,3.0501,3.0531,3.0625,3.0621,3.0642,3.0684,3.073,3.074,3.0749,3.0782,3.0794,3.065,3.065,3.065,0,2.9997,3.008,3.0096,3.0156,3.019,3.0189,3.0252,3.0285,3.035,3.0373,3.0356,3.0472,3.0505,3.0595,3.0618,3.0643,3.066,3.0635,3.0737,3.0747,3.0755,3.0787,3.0799,3.0652,3.0652,3.0652,3.0651,0,3.0114,3.0172,3.0216,3.0279,3.0318,3.0379,3.0404,3.0442,3.0447,3.0468,3.0545,3.0585,3.0644,3.0667,3.0672,3.0758,3.0747,3.0734,3.0702,3.077,3.0799,3.0812,3.0655,3.0654,3.0654,3.0653,0,0,3.0209,3.028,3.0296,3.0325,3.0381,3.0426,3.0487,3.0546,3.0577,3.0622,3.0674,3.0752,3.074,3.0774,3.0784,3.0824,3.0896,3.0806,3.0807,3.082,3.0992,3.1,3.1014,3.0893,3.0896,3.0898,3.0987,0,3.0295,3.0404,3.042,3.0516,3.0569,3.0569,3.0622,3.0662,3.0684,3.0732,3.0756,3.0811,3.0791,3.0812,3.0852,3.0879,3.093,3.0873,3.0941,3.0943,3.0927,3.103,3.104,3.1122,3.0999,3.1001,3.1002,0,3.041,3.0458,3.0559,3.0608,3.0631,3.0679,3.0733,3.078,3.0825,3.0838,3.0876,3.0881,3.0944,3.0911,3.0998,3.0958,3.0987,3.1005,3.1008,3.1014,3.0976,3.1038,3.1149,3.1161,3.1021,3.102,3.1018,0,3.0468,3.0559,3.063,3.0655,3.0714,3.0747,3.0773,3.0817,3.0851,3.0899,3.0921,3.0976,3.1005,3.1047,3.1067,3.1041,3.1152,3.1121,3.1164,3.1164,3.1187,3.1185,3.1303,3.1208,3.1207,3.1207,3.1207,0,3.0562,3.0624,3.0657,3.0701,3.077,3.0788,3.0856,3.0881,3.0919,3.0968,3.0972,3.1017,3.1041,3.109,3.1106,3.1175,3.1189,3.12,3.1204,3.1199,3.1198,3.1218,3.1212,3.121,3.121,3.1209,3.1208,0,3.0638,3.0663,3.0741,3.0791,3.0805,3.0853,3.0895,3.0938,3.0959,3.1021,3.1037,3.107,3.1128,3.1152,3.1223,3.1234,3.1313,3.1313,3.1298,3.1298,3.134,3.1336,3.1475,3.1493,3.1386,3.1387,3.1388,0,3.0696,3.0744,3.0798,3.0831,3.0858,3.0911,3.0946,3.0966,3.1001,3.1057,3.1093,3.1151,3.1198,3.1291,3.1321,3.1376,3.1376,3.1421,3.1384,3.1378,3.1375,3.1372,3.1376,3.1427,3.1428,3.1429,3.143,0,3.0797,3.0806,3.0856,3.0911,3.0952,3.0995,3.1038,3.1065,3.1091,3.1131,3.119,3.1227,3.13,3.1357,3.1413,3.144,3.1439,3.1441,3.1454,3.145,3.1439,3.1445,3.1315,3.1438,3.1437,3.1436,3.1436,3.1436,3.0865,3.0907,3.0951,3.1007,3.1041,3.108,3.1122,3.1149,3.1199,3.1259,3.1268,3.1331,3.1376,3.1451,3.148,3.1529,3.1518,3.1537,3.1541,3.1545,3.1548,3.1432,3.154,3.154,3.154,3.1539,3.1539,0,3.0965,3.0993,3.1044,3.1103,3.1146,3.1142,3.1189,3.1226,3.1281,3.1322,3.1369,3.1437,3.1492,3.1527,3.1583,3.1616,3.1617,3.163,3.1628,3.1634,3.1555,3.1538,3.1628,3.1628,3.1628,3.1628,3.1628,3.1628,3.1021,3.1091,3.1107,3.1193,3.1222,3.1283,3.131,3.1347,3.138,3.1455,3.1501,3.1524,3.1563,3.1621,3.1672,3.1681,3.1701,3.1715,3.1723,3.1649,3.1639,3.163,3.1614,3.1719,3.1719,3.1797,3.1797,3.1798]}]]